NKS364 LTFJ-LTFM

Flight info

Callsign NKS364
Flight time N/A
Altitude 6000
Route DCT LTBA DCT
Aircraft A20N/M-SDE3FGRWY/S

Departure

Time 2026-05-07 16:30
Airport Istanbul Sabiha Gökçen International Airport (LTFJ)

Arrival

Time N/A
Airport İstanbul Airport (LTFM)
Time Latitude Longitude Altitude Speed Heading
2026-05-07 16:19 40.90619 29.32184 321 ft 0 kts 154°
2026-05-07 16:25 40.90625 29.32180 321 ft 3 kts 154°
2026-05-07 16:25 40.90642 29.32169 321 ft 3 kts 154°
2026-05-07 16:25 40.90659 29.32158 321 ft 3 kts 154°
2026-05-07 16:26 40.90676 29.32147 321 ft 3 kts 154°
2026-05-07 16:26 40.90691 29.32136 321 ft 3 kts 121°
2026-05-07 16:26 40.90694 29.32116 321 ft 0 kts 58°
2026-05-07 16:27 40.90699 29.32129 321 ft 6 kts 59°
2026-05-07 16:28 40.90734 29.32212 321 ft 13 kts 68°
2026-05-07 16:28 40.90704 29.32284 321 ft 11 kts 149°
2026-05-07 16:28 40.90624 29.32345 321 ft 14 kts 131°
2026-05-07 16:28 40.90547 29.32444 320 ft 17 kts 155°
2026-05-07 16:29 40.90520 29.32462 321 ft 0 kts 151°
2026-05-07 16:29 40.90517 29.32464 321 ft 3 kts 151°
2026-05-07 16:29 40.90473 29.32481 318 ft 9 kts 178°
2026-05-07 16:30 40.90410 29.32429 318 ft 14 kts 240°
2026-05-07 16:30 40.90302 29.32138 319 ft 79 kts 244°
2026-05-07 16:30 40.89918 29.31093 472 ft 162 kts 244°
2026-05-07 16:30 40.89403 29.29602 1152 ft 192 kts 246°
2026-05-07 16:31 40.88872 29.27886 2066 ft 208 kts 250°
2026-05-07 16:31 40.88361 29.26040 3156 ft 219 kts 251°
2026-05-07 16:31 40.87860 29.24092 4208 ft 231 kts 259°
2026-05-07 16:31 40.87888 29.21938 5210 ft 242 kts 284°
2026-05-07 16:32 40.88658 29.19854 5525 ft 260 kts 306°
2026-05-07 16:32 40.90015 29.18318 5114 ft 258 kts 324°
2026-05-07 16:32 40.91513 29.17035 4718 ft 255 kts 325°
2026-05-07 16:32 40.93001 29.15770 4237 ft 255 kts 325°
2026-05-07 16:33 40.93965 29.14874 3904 ft 256 kts 317°
2026-05-07 16:33 40.95068 29.13104 3670 ft 243 kts 297°
2026-05-07 16:33 40.95660 29.11076 3514 ft 231 kts 291°
2026-05-07 16:33 40.96332 29.09191 3359 ft 227 kts 294°
2026-05-07 16:34 40.97070 29.07050 3109 ft 285 kts 293°
2026-05-07 16:34 40.97964 29.04459 2925 ft 331 kts 294°
2026-05-07 16:34 40.98961 29.01653 2892 ft 328 kts 295°
2026-05-07 16:34 40.99908 28.99079 2968 ft 296 kts 295°
2026-05-07 16:35 41.00793 28.96747 2947 ft 271 kts 295°
2026-05-07 16:35 41.01573 28.94585 2948 ft 250 kts 293°
2026-05-07 16:35 41.02244 28.92553 2911 ft 232 kts 291°
2026-05-07 16:35 41.02814 28.90640 2907 ft 215 kts 289°
2026-05-07 16:36 41.03293 28.88799 2929 ft 221 kts 286°
2026-05-07 16:36 41.03769 28.86630 3077 ft 271 kts 284°
2026-05-07 16:36 41.04290 28.83985 3010 ft 316 kts 285°
2026-05-07 16:36 41.04991 28.81347 2961 ft 291 kts 292°
2026-05-07 16:37 41.05865 28.79055 2969 ft 267 kts 301°
2026-05-07 16:37 41.06991 28.77243 3034 ft 246 kts 315°
2026-05-07 16:37 41.08352 28.76021 3025 ft 232 kts 333°
2026-05-07 16:37 41.09886 28.75529 2972 ft 221 kts 344°
2026-05-07 16:38 41.11331 28.74978 2771 ft 213 kts 337°
2026-05-07 16:38 41.12706 28.74324 2588 ft 206 kts 335°
2026-05-07 16:38 41.13996 28.73628 2522 ft 195 kts 333°
2026-05-07 16:38 41.14125 28.73553 2508 ft 194 kts 332°
2026-05-07 16:39 41.14946 28.73053 2450 ft 187 kts 330°